Weather History for Chignik, AK

Change the Weather History Date:

Wednesday, August 7, 2013

  Actual Average Record
Temperature  
Mean Temperature 54 °F -  
Max Temperature 57 °F 56 °F 68 °F (2004)
Min Temperature 50 °F 48 °F 44 °F (2001)
Degree Days  
Heating Degree Days 12    
Growing Degree Days 4 (Base 50)    
Moisture  
Dew Point 46 °F    
Average Humidity 79    
Maximum Humidity 94    
Minimum Humidity 67    
Precipitation  
Precipitation 0.00 in - - ()
Sea Level Pressure  
Sea Level Pressure 29.51 in    
Wind  
Wind Speed 4 mph (North)    
Max Wind Speed 13 mph    
Max Gust Speed 18 mph    
Visibility 9 miles    
Events      
Averages and records for this station are not official NWS values.
T = Trace of Precipitation, MM = Missing Value Source: NWS Daily Summary

Daily Weather History Graph

Daily Weather History Graph

Search for Another Location

Airport:

Trip Planner

Search our weather history database for the weather conditions in past years. The results will help you decide how hot, cold, wet, or windy it might be!

Date:

Astronomy

Aug. 07, 2013 Rise Set
Actual Time 6:48 AM AKDT 10:28 PM AKDT
Civil Twilight 6:01 AM AKDT 11:14 PM AKDT
Nautical Twilight 4:55 AM AKDT 12:20 AM AKDT
Astronomical Twilight 3:11 AM AKDT 2:06 AM AKDT
Moon 8:12 AM AKDT (8/7) 10:11 PM AKDT (8/7)
Length of Visible Light 17h 12m
Length of Day
15h 40m
New Moon, 1% of the Moon is Illuminated
Aug 7
New Moon
Aug 14
First Quarter
Aug 20
Full
Aug 28
Last Quarter
Sep 5
New

Hourly Weather History & Observations

Time (AKDT) Temp. Dew Point Humidity Pressure Visibility Wind Dir Wind Speed Gust Speed Precip Events Conditions
12:16 AM 50.0 °F 46.4 °F 87% 29.36 in 1.5 mi Calm Calm - N/A   Overcast
12:36 AM 50.0 °F 46.4 °F 87% 29.36 in 1.0 mi SW 3.5 mph - N/A   Overcast
12:56 AM 50.0 °F 46.4 °F 87% 29.35 in 0.8 mi SW 4.6 mph - N/A   Overcast
1:16 AM 50.0 °F 46.4 °F 87% 29.36 in 2.0 mi NNW 6.9 mph - N/A   Overcast
1:36 AM 50.0 °F 46.4 °F 87% 29.36 in 4.0 mi SW 5.8 mph - N/A   Overcast
1:56 AM 51.8 °F 48.2 °F 88% 29.36 in 6.0 mi Calm Calm - N/A   Overcast
2:16 AM 51.8 °F 48.2 °F 88% 29.36 in 10.0 mi Calm Calm - N/A   Mostly Cloudy
2:36 AM 50.0 °F 48.2 °F 94% 29.36 in 7.0 mi Calm Calm - N/A   Overcast
2:56 AM 51.8 °F 46.4 °F 82% 29.37 in 10.0 mi West 12.7 mph 18.4 mph N/A   Overcast
3:16 AM 51.8 °F 44.6 °F 76% 29.38 in 10.0 mi West 12.7 mph 18.4 mph N/A   Overcast
3:36 AM 51.8 °F 44.6 °F 76% 29.38 in 10.0 mi West 6.9 mph 17.3 mph N/A   Overcast
3:56 AM 51.8 °F 44.6 °F 76% 29.39 in 10.0 mi NW 6.9 mph - N/A   Mostly Cloudy
4:16 AM 51.8 °F 44.6 °F 76% 29.39 in 10.0 mi West 8.1 mph 18.4 mph N/A   Overcast
4:36 AM 51.8 °F 44.6 °F 76% 29.40 in 10.0 mi SW 8.1 mph - N/A   Overcast
4:56 AM 51.8 °F 44.6 °F 76% 29.41 in 10.0 mi SW 5.8 mph - N/A   Overcast
5:16 AM 51.8 °F 44.6 °F 76% 29.42 in 10.0 mi SSW 3.5 mph - N/A   Overcast
5:36 AM 51.8 °F 44.6 °F 76% 29.42 in 10.0 mi Calm Calm - N/A   Overcast
5:56 AM 51.8 °F 44.6 °F 76% 29.43 in 10.0 mi Calm Calm - N/A   Mostly Cloudy
6:16 AM 50.0 °F 44.6 °F 82% 29.43 in 10.0 mi Calm Calm - N/A   Mostly Cloudy
6:36 AM 51.8 °F 44.6 °F 76% 29.44 in 10.0 mi Calm Calm - N/A   Overcast
6:56 AM 50.0 °F 44.6 °F 82% 29.44 in 10.0 mi NE 3.5 mph - N/A   Overcast
7:16 AM 51.8 °F 44.6 °F 76% 29.44 in 10.0 mi ENE 4.6 mph - N/A   Overcast
7:36 AM 50.0 °F 44.6 °F 82% 29.45 in 10.0 mi Calm Calm - N/A   Overcast
7:56 AM 50.0 °F 44.6 °F 82% 29.46 in 10.0 mi NE 4.6 mph - N/A   Overcast
8:16 AM 50.0 °F 44.6 °F 82% 29.46 in 10.0 mi Calm Calm - N/A   Overcast
8:36 AM 51.8 °F 46.4 °F 82% 29.47 in 10.0 mi NE 4.6 mph - N/A   Overcast
8:56 AM 51.8 °F 44.6 °F 76% 29.48 in 10.0 mi NE 4.6 mph - N/A   Overcast
9:16 AM 50.0 °F 46.4 °F 87% 29.49 in 10.0 mi NE 3.5 mph - N/A   Overcast
9:36 AM 50.0 °F 46.4 °F 87% 29.50 in 10.0 mi Calm Calm - N/A   Overcast
9:56 AM 50.0 °F 46.4 °F 87% 29.50 in 9.0 mi Calm Calm - N/A   Overcast
10:16 AM 50.0 °F 46.4 °F 87% 29.51 in 9.0 mi Calm Calm - N/A   Overcast
10:36 AM 50.0 °F 46.4 °F 87% 29.52 in 10.0 mi Calm Calm - N/A   Overcast
10:56 AM 50.0 °F 46.4 °F 87% 29.52 in 10.0 mi Calm Calm - N/A   Overcast
11:16 AM 51.8 °F 46.4 °F 82% 29.53 in 10.0 mi NNW 3.5 mph - N/A   Overcast
11:36 AM 50.0 °F 46.4 °F 87% 29.54 in 10.0 mi NE 3.5 mph - N/A   Overcast
11:56 AM 51.8 °F 46.4 °F 82% 29.54 in 10.0 mi NNE 4.6 mph - N/A   Overcast
12:16 PM 51.8 °F 46.4 °F 82% 29.55 in 10.0 mi North 4.6 mph - N/A   Overcast
12:36 PM 51.8 °F 46.4 °F 82% 29.56 in 10.0 mi NNE 5.8 mph - N/A   Overcast
12:56 PM 51.8 °F 46.4 °F 82% 29.56 in 10.0 mi NNE 4.6 mph - N/A   Overcast
1:16 PM 53.6 °F 46.4 °F 77% 29.57 in 10.0 mi North 6.9 mph - N/A   Overcast
1:36 PM 53.6 °F 46.4 °F 77% 29.57 in 10.0 mi NNE 4.6 mph - N/A   Overcast
1:56 PM 53.6 °F 46.4 °F 77% 29.58 in 10.0 mi North 4.6 mph - N/A   Overcast
2:16 PM 53.6 °F 46.4 °F 77% 29.58 in 10.0 mi North 4.6 mph - N/A   Overcast
2:36 PM 53.6 °F 46.4 °F 77% 29.59 in 10.0 mi North 3.5 mph - N/A   Overcast
2:56 PM 53.6 °F 46.4 °F 77% 29.59 in 10.0 mi NNE 3.5 mph - N/A   Overcast
3:16 PM 53.6 °F 46.4 °F 77% 29.59 in 10.0 mi Calm Calm - N/A   Overcast
3:36 PM 53.6 °F 46.4 °F 77% 29.59 in 10.0 mi Calm Calm - N/A   Overcast
3:56 PM 53.6 °F 46.4 °F 77% 29.60 in 10.0 mi Calm Calm - N/A   Overcast
4:16 PM 53.6 °F 46.4 °F 77% 29.60 in 10.0 mi North 4.6 mph - N/A   Overcast
4:36 PM 53.6 °F 46.4 °F 77% 29.60 in 10.0 mi NNE 5.8 mph - N/A   Overcast
4:56 PM 55.4 °F 46.4 °F 72% 29.60 in 10.0 mi NNE 5.8 mph - N/A   Overcast
5:16 PM 57.2 °F 48.2 °F 72% 29.59 in 10.0 mi NE 6.9 mph - N/A   Overcast
5:36 PM 55.4 °F 48.2 °F 77% 29.59 in 10.0 mi NNW 6.9 mph - N/A   Overcast
5:56 PM 55.4 °F 46.4 °F 72% 29.60 in 10.0 mi South 5.8 mph - N/A   Overcast
6:16 PM 55.4 °F 48.2 °F 77% 29.60 in 10.0 mi Calm Calm - N/A   Overcast
6:36 PM 55.4 °F 48.2 °F 77% 29.60 in 10.0 mi Calm Calm - N/A   Overcast
6:56 PM 55.4 °F 46.4 °F 72% 29.59 in 10.0 mi SSE 6.9 mph - N/A   Overcast
7:16 PM 55.4 °F 46.4 °F 72% 29.60 in 10.0 mi SW 3.5 mph - N/A   Overcast
7:36 PM 55.4 °F 46.4 °F 72% 29.60 in 10.0 mi West 4.6 mph - N/A   Overcast
7:56 PM 55.4 °F 44.6 °F 67% 29.60 in 10.0 mi WSW 10.4 mph - N/A   Overcast
8:16 PM 53.6 °F 46.4 °F 77% 29.60 in 10.0 mi ENE 9.2 mph - N/A   Mostly Cloudy
8:36 PM 53.6 °F 46.4 °F 77% 29.60 in 10.0 mi East 8.1 mph - N/A   Mostly Cloudy
8:56 PM 53.6 °F 46.4 °F 77% 29.60 in 10.0 mi NE 5.8 mph - N/A   Overcast
9:16 PM 53.6 °F 46.4 °F 77% 29.60 in 10.0 mi NNE 5.8 mph - N/A   Mostly Cloudy
9:36 PM 51.8 °F 46.4 °F 82% 29.60 in 10.0 mi NE 6.9 mph - N/A   Overcast
10:16 PM 53.6 °F 44.6 °F 72% 29.61 in 10.0 mi Calm Calm - N/A   Overcast
10:36 PM 51.8 °F 44.6 °F 76% 29.61 in 10.0 mi Calm Calm - N/A   Overcast
10:56 PM 51.8 °F 44.6 °F 76% 29.61 in 10.0 mi Calm Calm - N/A   Overcast
11:16 PM 51.8 °F 44.6 °F 76% 29.61 in 10.0 mi Calm Calm - N/A   Mostly Cloudy
11:36 PM 51.8 °F 44.6 °F 76% 29.61 in 10.0 mi ESE 3.5 mph - N/A   Overcast
11:56 PM 51.8 °F 44.6 °F 76% 29.60 in 10.0 mi Calm Calm - N/A   Overcast